| time (UTC) | temp F | wind direction | speed MPH | gust MPH | rain 1hr in | rain 24hr in | rain mn in | humidity % | barometer mb |
| 20260901072259 | 82 | 243 | 1.0 | 1.0 | 0.00 | 0.00 | 0.00 | 77 | 1017.9 |
| 20260901071754 | 82 | 231 | 0.0 | 0.0 | 0.00 | 0.00 | 0.00 | 77 | 1017.5 |
| 20260901071253 | 82 | 229 | 0.0 | 1.0 | 0.00 | 0.00 | 0.00 | 76 | 1017.9 |
| 20260901070752 | 82 | 300 | 1.0 | 1.0 | 0.00 | 0.00 | 0.00 | 76 | 1017.9 |
| 20260901070248 | 82 | 210 | 2.0 | 2.0 | 0.00 | 0.00 | 0.00 | 75 | 1017.5 |
| 20260901065747 | 82 | 204 | 1.0 | 2.0 | 0.00 | 0.00 | 0.00 | 75 | 1017.5 |
| 20260901065243 | 82 | 149 | 2.0 | 2.0 | 0.00 | 0.00 | 0.00 | 75 | 1017.5 |
| 20260901064739 | 83 | 274 | 1.0 | 1.0 | 0.00 | 0.00 | 0.00 | 74 | 1017.5 |
| 20260901064235 | 83 | 240 | 1.0 | 1.0 | 0.00 | 0.00 | 0.00 | 74 | 1017.5 |
| 20260901063732 | 83 | 244 | 1.0 | 1.0 | 0.00 | 0.00 | 0.00 | 73 | 1017.5 |
| 20260901063227 | 83 | 245 | 1.0 | 1.0 | 0.00 | 0.00 | 0.00 | 73 | 1017.5 |
| 20260901062724 | 83 | 239 | 1.0 | 1.0 | 0.00 | 0.00 | 0.00 | 73 | 1017.5 |
| 20260901062219 | 83 | 225 | 2.0 | 2.0 | 0.00 | 0.00 | 0.00 | 72 | 1017.5 |
| 20260901061715 | 83 | 231 | 2.0 | 2.0 | 0.00 | 0.00 | 0.00 | 72 | 1017.2 |
| 20260901061214 | 84 | 264 | 2.0 | 3.0 | 0.00 | 0.00 | 0.00 | 72 | 1017.2 |
| 20260901060709 | 84 | 227 | 1.0 | 1.0 | 0.00 | 0.00 | 0.00 | 72 | 1017.2 |
| 20260901060205 | 83 | 242 | 0.0 | 1.0 | 0.00 | 0.00 | 0.00 | 73 | 1017.2 |
| 20260901055700 | 83 | 207 | 2.0 | 2.0 | 0.00 | 0.00 | 0.00 | 73 | 1017.2 |
| 20260901055157 | 84 | 208 | 0.0 | 1.0 | 0.00 | 0.00 | 0.00 | 72 | 1017.2 |
| 20260901054654 | 84 | 233 | 1.0 | 2.0 | 0.00 | 0.00 | 0.00 | 71 | 1017.2 |
| 20260901054149 | 84 | 228 | 1.0 | 1.0 | 0.00 | 0.00 | 0.00 | 71 | 1017.2 |
| 20260901053645 | 84 | 165 | 2.0 | 2.0 | 0.00 | 0.00 | 0.00 | 71 | 1017.5 |
| 20260901053141 | 84 | 205 | 0.0 | 0.0 | 0.00 | 0.00 | 0.00 | 70 | 1017.2 |
| 20260901052636 | 84 | 247 | 0.0 | 1.0 | 0.00 | 0.00 | 0.00 | 70 | 1017.5 |
| 20260901052131 | 84 | 227 | 1.0 | 1.0 | 0.00 | 0.00 | 0.00 | 69 | 1017.2 |
| 20260901051631 | 85 | 193 | 3.0 | 3.0 | 0.00 | 0.00 | 0.00 | 68 | 1017.2 |
| 20260901051130 | 85 | 237 | 1.0 | 2.0 | 0.00 | 0.00 | 0.00 | 67 | 1017.2 |
| 20260901050625 | 85 | 244 | 2.0 | 3.0 | 0.00 | 0.00 | 0.00 | 66 | 1017.2 |
| 20260901050121 | 85 | 207 | 3.0 | 5.0 | 0.00 | 0.00 | 0.00 | 65 | 1017.2 |
| 20260901045615 | 85 | 169 | 1.0 | 2.0 | 0.00 | 0.00 | 0.00 | 65 | 1016.9 |
| 20260901045110 | 85 | 212 | 1.0 | 2.0 | 0.00 | 0.00 | 0.00 | 64 | 1016.9 |
| 20260901044606 | 85 | 174 | 1.0 | 2.0 | 0.00 | 0.00 | 0.00 | 64 | 1017.2 |
| 20260901044101 | 85 | 235 | 2.0 | 3.0 | 0.00 | 0.00 | 0.00 | 63 | 1016.9 |
| 20260901043557 | 85 | 235 | 1.0 | 1.0 | 0.00 | 0.00 | 0.00 | 63 | 1016.9 |
| 20260901043052 | 85 | 236 | 0.0 | 1.0 | 0.00 | 0.00 | 0.00 | 63 | 1016.9 |
| 20260901042551 | 85 | 241 | 1.0 | 2.0 | 0.00 | 0.00 | 0.00 | 62 | 1016.9 |
| 20260901042047 | 86 | 205 | 1.0 | 1.0 | 0.00 | 0.00 | 0.00 | 62 | 1016.9 |
| 20260901041542 | 86 | 234 | 1.0 | 1.0 | 0.00 | 0.00 | 0.00 | 61 | 1016.5 |
| 20260901041037 | 86 | 99 | 1.0 | 2.0 | 0.00 | 0.00 | 0.00 | 61 | 1016.9 |
| 20260901040536 | 86 | 145 | 3.0 | 5.0 | 0.00 | 0.00 | 0.00 | 60 | 1016.9 |
| 20260901040031 | 86 | 225 | 1.0 | 1.0 | 0.00 | 0.00 | 0.00 | 59 | 1016.9 |
| 20260901035528 | 86 | 220 | 1.0 | 1.0 | 0.00 | 0.00 | 0.00 | 59 | 1016.9 |
| 20260901035027 | 87 | 207 | 2.0 | 2.0 | 0.00 | 0.00 | 0.00 | 58 | 1016.9 |
| 20260901034522 | 87 | 124 | 5.0 | 6.0 | 0.00 | 0.00 | 0.00 | 58 | 1016.5 |
| 20260901034017 | 87 | 141 | 1.0 | 2.0 | 0.00 | 0.00 | 0.00 | 57 | 1016.9 |
| 20260901033515 | 87 | 190 | 3.0 | 5.0 | 0.00 | 0.00 | 0.00 | 57 | 1016.5 |
| 20260901033010 | 87 | 226 | 1.0 | 1.0 | 0.00 | 0.00 | 0.00 | 56 | 1016.5 |
| 20260901032504 | 88 | 202 | 0.0 | 1.0 | 0.00 | 0.00 | 0.00 | 55 | 1016.5 |
| 20260901032003 | 88 | 171 | 0.0 | 1.0 | 0.00 | 0.00 | 0.00 | 55 | 1016.5 |
| 20260901031459 | 88 | 254 | 1.0 | 1.0 | 0.00 | 0.00 | 0.00 | 54 | 1016.5 |
| 20260901030954 | 88 | 151 | 5.0 | 5.0 | 0.00 | 0.00 | 0.00 | 53 | 1016.5 |
| 20260901030449 | 89 | 103 | 2.0 | 3.0 | 0.00 | 0.00 | 0.00 | 53 | 1016.2 |
| 20260901025948 | 89 | 142 | 1.0 | 1.0 | 0.00 | 0.00 | 0.00 | 52 | 1016.2 |
| 20260901025444 | 89 | 148 | 4.0 | 6.0 | 0.00 | 0.00 | 0.00 | 52 | 1016.2 |
| 20260901024943 | 89 | 141 | 1.0 | 1.0 | 0.00 | 0.00 | 0.00 | 51 | 1016.2 |
| 20260901024438 | 89 | 186 | 1.0 | 2.0 | 0.00 | 0.00 | 0.00 | 50 | 1016.2 |
| 20260901023936 | 89 | 189 | 2.0 | 2.0 | 0.00 | 0.00 | 0.00 | 49 | 1015.8 |
| 20260901023431 | 89 | 224 | 0.0 | 1.0 | 0.00 | 0.00 | 0.00 | 47 | 1015.8 |
| 20260901022926 | 90 | 161 | 2.0 | 2.0 | 0.00 | 0.00 | 0.00 | 47 | 1015.5 |
| 20260901022422 | 90 | 94 | 3.0 | 3.0 | 0.00 | 0.00 | 0.00 | 46 | 1015.5 |
| 20260901021916 | 90 | 202 | 2.0 | 2.0 | 0.00 | 0.00 | 0.00 | 46 | 1015.5 |
| 20260901021412 | 90 | 199 | 3.0 | 3.0 | 0.00 | 0.00 | 0.00 | 45 | 1015.5 |
| 20260901020907 | 90 | 157 | 3.0 | 3.0 | 0.00 | 0.00 | 0.00 | 45 | 1015.5 |
| 20260901020403 | 90 | 127 | 1.0 | 1.0 | 0.00 | 0.00 | 0.00 | 45 | 1015.5 |
| 20260901015902 | 91 | 241 | 0.0 | 0.0 | 0.00 | 0.00 | 0.00 | 45 | 1015.2 |
| 20260901015358 | 91 | 244 | 0.0 | 1.0 | 0.00 | 0.00 | 0.00 | 44 | 1015.2 |
| 20260901014857 | 91 | 92 | 1.0 | 2.0 | 0.00 | 0.00 | 0.00 | 43 | 1015.2 |
| 20260901014354 | 92 | 223 | 1.0 | 1.0 | 0.00 | 0.00 | 0.00 | 43 | 1015.2 |
| 20260901013849 | 92 | 188 | 0.0 | 0.0 | 0.00 | 0.00 | 0.00 | 43 | 1014.8 |
| 20260901013345 | 92 | 169 | 1.0 | 2.0 | 0.00 | 0.00 | 0.00 | 42 | 1014.8 |
| 20260901012840 | 92 | 198 | 0.0 | 0.0 | 0.00 | 0.00 | 0.00 | 42 | 1014.8 |
| 20260901012335 | 93 | 239 | 1.0 | 1.0 | 0.00 | 0.00 | 0.00 | 41 | 1014.8 |
| 20260901011831 | 93 | 126 | 2.0 | 2.0 | 0.00 | 0.00 | 0.00 | 40 | 1014.8 |
| 20260901011326 | 93 | 190 | 0.0 | 0.0 | 0.00 | 0.00 | 0.00 | 40 | 1014.8 |
| 20260901010819 | 93 | 119 | 1.0 | 1.0 | 0.00 | 0.00 | 0.00 | 40 | 1014.5 |
| 20260901010314 | 94 | 224 | 0.0 | 0.0 | 0.00 | 0.00 | 0.00 | 40 | 1014.5 |
| 20260901005813 | 94 | 190 | 2.0 | 3.0 | 0.00 | 0.00 | 0.00 | 39 | 1014.5 |
| 20260901005308 | 94 | 233 | 0.0 | 1.0 | 0.00 | 0.00 | 0.00 | 39 | 1014.5 |
| 20260901004803 | 95 | 199 | 2.0 | 2.0 | 0.00 | 0.00 | 0.00 | 39 | 1014.5 |
| 20260901004257 | 95 | 173 | 0.0 | 0.0 | 0.00 | 0.00 | 0.00 | 38 | 1014.5 |
| 20260901003756 | 95 | 139 | 1.0 | 2.0 | 0.00 | 0.00 | 0.00 | 38 | 1014.5 |
| 20260901003251 | 95 | 235 | 0.0 | 0.0 | 0.00 | 0.00 | 0.00 | 38 | 1014.5 |
| 20260901002744 | 96 | 146 | 0.0 | 1.0 | 0.00 | 0.00 | 0.00 | 38 | 1014.5 |
| 20260901002240 | 96 | 153 | 2.0 | 2.0 | 0.00 | 0.00 | 0.00 | 37 | 1014.5 |
| 20260901001735 | 96 | 160 | 0.0 | 1.0 | 0.00 | 0.00 | 0.00 | 37 | 1014.8 |
| 20260901001230 | 96 | 146 | 1.0 | 2.0 | 0.00 | 0.00 | 0.00 | 37 | 1014.5 |
| 20260901000725 | 97 | 175 | 0.0 | 1.0 | 0.00 | 0.00 | 0.00 | 37 | 1014.5 |
| 20260901000220 | 97 | 173 | 3.0 | 3.0 | 0.00 | 0.00 | 0.00 | 36 | 1014.5 |
| 20260831235714 | 97 | 257 | 2.0 | 2.0 | 0.00 | 0.00 | 0.00 | 36 | 1014.5 |
| 20260831235210 | 97 | 207 | 1.0 | 2.0 | 0.00 | 0.00 | 0.00 | 35 | 1014.5 |
| 20260831234709 | 98 | 141 | 3.0 | 3.0 | 0.00 | 0.00 | 0.00 | 35 | 1014.5 |
| 20260831234204 | 98 | 163 | 2.0 | 2.0 | 0.00 | 0.00 | 0.00 | 35 | 1014.1 |
| 20260831233659 | 98 | 123 | 3.0 | 7.0 | 0.00 | 0.00 | 0.00 | 35 | 1014.5 |
| 20260831233154 | 98 | 281 | 1.0 | 2.0 | 0.00 | 0.00 | 0.00 | 34 | 1014.5 |
| 20260831232649 | 99 | 196 | 3.0 | 5.0 | 0.00 | 0.00 | 0.00 | 34 | 1014.1 |
| 20260831232146 | 99 | 190 | 3.0 | 3.0 | 0.00 | 0.00 | 0.00 | 35 | 1014.5 |
| 20260831231642 | 99 | 200 | 2.0 | 2.0 | 0.00 | 0.00 | 0.00 | 35 | 1014.5 |
| 20260831231137 | 99 | 259 | 2.0 | 3.0 | 0.00 | 0.00 | 0.00 | 35 | 1014.5 |
| 20260831230632 | 99 | 106 | 3.0 | 6.0 | 0.00 | 0.00 | 0.00 | 35 | 1014.5 |
| 20260831230127 | 100 | 127 | 3.0 | 5.0 | 0.00 | 0.00 | 0.00 | 35 | 1014.5 |
| 20260831225621 | 100 | 228 | 4.0 | 6.0 | 0.00 | 0.00 | 0.00 | 35 | 1014.5 |
| 20260831225116 | 100 | 111 | 2.0 | 3.0 | 0.00 | 0.00 | 0.00 | 35 | 1014.5 |
| 20260831224606 | 98 | 152 | 1.0 | 2.0 | 0.00 | 0.00 | 0.00 | 36 | 1014.5 |
| 20260831224101 | 98 | 115 | 2.0 | 3.0 | 0.00 | 0.00 | 0.00 | 36 | 1014.8 |
| 20260831223557 | 98 | 185 | 1.0 | 2.0 | 0.00 | 0.00 | 0.00 | 37 | 1014.8 |
| 20260831223053 | 99 | 130 | 3.0 | 5.0 | 0.00 | 0.00 | 0.00 | 36 | 1014.8 |
| 20260831222549 | 100 | 143 | 4.0 | 7.0 | 0.00 | 0.00 | 0.00 | 36 | 1014.8 |
| 20260831222048 | 101 | 152 | 4.0 | 6.0 | 0.00 | 0.00 | 0.00 | 35 | 1014.8 |
| 20260831221544 | 101 | 262 | 0.0 | 1.0 | 0.00 | 0.00 | 0.00 | 35 | 1014.8 |
| 20260831221039 | 100 | 281 | 0.0 | 0.0 | 0.00 | 0.00 | 0.00 | 36 | 1014.8 |
| 20260831220534 | 101 | 58 | 1.0 | 2.0 | 0.00 | 0.00 | 0.00 | 36 | 1014.8 |
| 20260831220030 | 100 | 314 | 0.0 | 1.0 | 0.00 | 0.00 | 0.00 | 36 | 1014.8 |
| 20260831215525 | 100 | 132 | 2.0 | 3.0 | 0.00 | 0.00 | 0.00 | 37 | 1014.5 |
| 20260831215021 | 101 | 71 | 3.0 | 3.0 | 0.00 | 0.00 | 0.00 | 36 | 1014.8 |
| 20260831214518 | 101 | 167 | 6.0 | 8.0 | 0.00 | 0.00 | 0.00 | 36 | 1014.8 |
| 20260831214014 | 100 | 277 | 3.0 | 3.0 | 0.00 | 0.00 | 0.00 | 36 | 1014.8 |
| 20260831213510 | 100 | 202 | 3.0 | 5.0 | 0.00 | 0.00 | 0.00 | 36 | 1015.2 |
| 20260831213010 | 100 | 236 | 4.0 | 5.0 | 0.00 | 0.00 | 0.00 | 36 | 1015.2 |
| 20260831212506 | 100 | 197 | 1.0 | 1.0 | 0.00 | 0.00 | 0.00 | 37 | 1015.2 |
| 20260831212001 | 100 | 146 | 3.0 | 3.0 | 0.00 | 0.00 | 0.00 | 37 | 1015.2 |
| 20260831211456 | 100 | 158 | 3.0 | 5.0 | 0.00 | 0.00 | 0.00 | 37 | 1015.2 |
| 20260831210955 | 100 | 150 | 3.0 | 3.0 | 0.00 | 0.00 | 0.00 | 36 | 1015.2 |
| 20260831210450 | 101 | 207 | 6.0 | 7.0 | 0.00 | 0.00 | 0.00 | 37 | 1015.2 |
| 20260831205946 | 101 | 256 | 3.0 | 5.0 | 0.00 | 0.00 | 0.00 | 37 | 1015.5 |
| 20260831205441 | 101 | 146 | 4.0 | 7.0 | 0.00 | 0.00 | 0.00 | 36 | 1015.5 |
| 20260831204937 | 100 | 206 | 3.0 | 5.0 | 0.00 | 0.00 | 0.00 | 37 | 1015.5 |
| 20260831204436 | 100 | 84 | 3.0 | 7.0 | 0.00 | 0.00 | 0.00 | 37 | 1016.2 |
| 20260831203930 | 99 | 203 | 3.0 | 3.0 | 0.00 | 0.00 | 0.00 | 37 | 1016.2 |
| 20260831203424 | 99 | 170 | 5.0 | 7.0 | 0.00 | 0.00 | 0.00 | 38 | 1016.2 |
| 20260831202922 | 100 | 152 | 3.0 | 5.0 | 0.00 | 0.00 | 0.00 | 37 | 1016.2 |
| 20260831202418 | 98 | 204 | 3.0 | 5.0 | 0.00 | 0.00 | 0.00 | 39 | 1016.2 |
| 20260831201912 | 98 | 261 | 3.0 | 5.0 | 0.00 | 0.00 | 0.00 | 41 | 1016.2 |
| 20260831201411 | 98 | 123 | 1.0 | 2.0 | 0.00 | 0.00 | 0.00 | 42 | 1016.2 |
| 20260831200907 | 97 | 171 | 1.0 | 1.0 | 0.00 | 0.00 | 0.00 | 42 | 1016.5 |
| 20260831200402 | 97 | 277 | 2.0 | 2.0 | 0.00 | 0.00 | 0.00 | 42 | 1016.5 |
| 20260831195856 | 98 | 144 | 3.0 | 5.0 | 0.00 | 0.00 | 0.00 | 41 | 1016.5 |
| 20260831195352 | 96 | 270 | 1.0 | 1.0 | 0.00 | 0.00 | 0.00 | 42 | 1016.5 |
| 20260831194847 | 97 | 181 | 3.0 | 3.0 | 0.00 | 0.00 | 0.00 | 43 | 1016.5 |
| 20260831194343 | 96 | 165 | 1.0 | 2.0 | 0.00 | 0.00 | 0.00 | 43 | 1016.9 |
| 20260831193842 | 99 | 141 | 1.0 | 1.0 | 0.00 | 0.00 | 0.00 | 42 | 1016.9 |
| 20260831193337 | 99 | 232 | 2.0 | 3.0 | 0.00 | 0.00 | 0.00 | 40 | 1017.2 |
| 20260831192832 | 100 | 180 | 2.0 | 5.0 | 0.00 | 0.00 | 0.00 | 40 | 1017.2 |
| 20260831192332 | 99 | 267 | 2.0 | 2.0 | 0.00 | 0.00 | 0.00 | 40 | 1017.2 |
| 20260831191828 | 98 | 269 | 3.0 | 3.0 | 0.00 | 0.00 | 0.00 | 41 | 1017.2 |
| 20260831191324 | 98 | 146 | 2.0 | 7.0 | 0.00 | 0.00 | 0.00 | 41 | 1017.2 |
| 20260831190819 | 98 | 205 | 5.0 | 7.0 | 0.00 | 0.00 | 0.00 | 43 | 1017.2 |
| 20260831190314 | 99 | 207 | 3.0 | 3.0 | 0.00 | 0.00 | 0.00 | 42 | 1017.2 |
| 20260831185813 | 99 | 169 | 3.0 | 5.0 | 0.00 | 0.00 | 0.00 | 42 | 1017.5 |
| 20260831185309 | 98 | 204 | 0.0 | 1.0 | 0.00 | 0.00 | 0.00 | 43 | 1017.5 |
| 20260831184808 | 98 | 214 | 3.0 | 5.0 | 0.00 | 0.00 | 0.00 | 43 | 1017.5 |
| 20260831184304 | 98 | 235 | 2.0 | 2.0 | 0.00 | 0.00 | 0.00 | 43 | 1017.5 |
| 20260831183759 | 95 | 74 | 3.0 | 6.0 | 0.00 | 0.00 | 0.00 | 45 | 1017.9 |
| 20260831183258 | 95 | 143 | 5.0 | 7.0 | 0.00 | 0.00 | 0.00 | 46 | 1017.9 |
| 20260831182757 | 98 | 138 | 5.0 | 7.0 | 0.00 | 0.00 | 0.00 | 43 | 1017.9 |
| 20260831182253 | 96 | 77 | 2.0 | 2.0 | 0.00 | 0.00 | 0.00 | 46 | 1017.9 |
| 20260831181748 | 97 | 191 | 4.0 | 5.0 | 0.00 | 0.00 | 0.00 | 45 | 1018.2 |
| 20260831181243 | 96 | 108 | 2.0 | 2.0 | 0.00 | 0.00 | 0.00 | 46 | 1017.9 |
| 20260831180743 | 96 | 204 | 3.0 | 3.0 | 0.00 | 0.00 | 0.00 | 46 | 1017.9 |
| 20260831180238 | 96 | 312 | 2.0 | 2.0 | 0.00 | 0.00 | 0.00 | 47 | 1018.2 |
| 20260831175737 | 96 | 202 | 2.0 | 3.0 | 0.00 | 0.00 | 0.00 | 46 | 1018.2 |
| 20260831175234 | 95 | 277 | 2.0 | 2.0 | 0.00 | 0.00 | 0.00 | 47 | 1018.2 |
| 20260831174729 | 95 | 184 | 3.0 | 5.0 | 0.00 | 0.00 | 0.00 | 46 | 1018.2 |
| 20260831174224 | 96 | 195 | 2.0 | 3.0 | 0.00 | 0.00 | 0.00 | 47 | 1018.5 |
| 20260831173724 | 95 | 236 | 2.0 | 2.0 | 0.00 | 0.00 | 0.00 | 49 | 1018.5 |
| 20260831173218 | 95 | 218 | 5.0 | 7.0 | 0.00 | 0.00 | 0.00 | 47 | 1018.9 |
| 20260831172713 | 94 | 187 | 0.0 | 1.0 | 0.00 | 0.00 | 0.00 | 50 | 1018.9 |
| 20260831172208 | 94 | 242 | 4.0 | 5.0 | 0.00 | 0.00 | 0.00 | 51 | 1018.9 |
| 20260831171703 | 93 | 240 | 2.0 | 2.0 | 0.00 | 0.00 | 0.00 | 51 | 1018.9 |
| 20260831171200 | 91 | 277 | 1.0 | 1.0 | 0.00 | 0.00 | 0.00 | 55 | 1018.9 |
| 20260831170656 | 92 | 259 | 0.0 | 0.0 | 0.00 | 0.00 | 0.00 | 55 | 1018.5 |
| 20260831170153 | 92 | 251 | 3.0 | 6.0 | 0.00 | 0.00 | 0.00 | 54 | 1018.9 |
| 20260831165648 | 92 | 305 | 4.0 | 6.0 | 0.00 | 0.00 | 0.00 | 55 | 1018.9 |
| 20260831165145 | 92 | 231 | 1.0 | 2.0 | 0.00 | 0.00 | 0.00 | 55 | 1018.9 |
| 20260831164641 | 92 | 180 | 3.0 | 5.0 | 0.00 | 0.00 | 0.00 | 54 | 1018.9 |
| 20260831164136 | 92 | 222 | 3.0 | 5.0 | 0.00 | 0.00 | 0.00 | 55 | 1018.9 |
| 20260831163631 | 92 | 183 | 3.0 | 3.0 | 0.00 | 0.00 | 0.00 | 56 | 1019.3 |
| 20260831163127 | 91 | 181 | 4.0 | 5.0 | 0.00 | 0.00 | 0.00 | 59 | 1018.9 |
| 20260831162626 | 92 | 215 | 4.0 | 6.0 | 0.00 | 0.00 | 0.00 | 56 | 1018.9 |
| 20260831162124 | 90 | 183 | 3.0 | 3.0 | 0.00 | 0.00 | 0.00 | 59 | 1018.9 |
| 20260831161620 | 90 | 220 | 3.0 | 5.0 | 0.00 | 0.00 | 0.00 | 60 | 1018.9 |
| 20260831161117 | 89 | 235 | 2.0 | 3.0 | 0.00 | 0.00 | 0.00 | 62 | 1018.9 |
| 20260831160615 | 91 | 144 | 3.0 | 6.0 | 0.00 | 0.00 | 0.00 | 60 | 1019.3 |
| 20260831160111 | 90 | 158 | 3.0 | 3.0 | 0.00 | 0.00 | 0.00 | 61 | 1018.9 |
| 20260831155605 | 91 | 271 | 4.0 | 5.0 | 0.00 | 0.00 | 0.00 | 60 | 1019.3 |
| 20260831155101 | 90 | 213 | 3.0 | 3.0 | 0.00 | 0.00 | 0.00 | 60 | 1018.9 |
| 20260831154557 | 91 | 238 | 2.0 | 3.0 | 0.00 | 0.00 | 0.00 | 59 | 1018.9 |
| 20260831154056 | 89 | 223 | 3.0 | 3.0 | 0.00 | 0.00 | 0.00 | 60 | 1018.9 |
| 20260831153555 | 90 | 206 | 4.0 | 7.0 | 0.00 | 0.00 | 0.00 | 61 | 1018.9 |
| 20260831153053 | 89 | 221 | 1.0 | 1.0 | 0.00 | 0.00 | 0.00 | 65 | 1018.5 |
| 20260831152548 | 89 | 78 | 3.0 | 3.0 | 0.00 | 0.00 | 0.00 | 67 | 1018.9 |
| 20260831152043 | 89 | 265 | 1.0 | 1.0 | 0.00 | 0.00 | 0.00 | 65 | 1018.5 |
| 20260831151542 | 89 | 343 | 1.0 | 1.0 | 0.00 | 0.00 | 0.00 | 65 | 1018.9 |
| 20260831151037 | 86 | 142 | 1.0 | 2.0 | 0.00 | 0.00 | 0.00 | 70 | 1018.9 |
| 20260831150532 | 86 | 234 | 6.0 | 7.0 | 0.00 | 0.00 | 0.00 | 72 | 1018.5 |
| 20260831150029 | 85 | 216 | 3.0 | 3.0 | 0.00 | 0.00 | 0.00 | 74 | 1018.9 |
| 20260831145522 | 86 | 207 | 3.0 | 3.0 | 0.00 | 0.00 | 0.00 | 74 | 1018.9 |
| 20260831145019 | 86 | 281 | 1.0 | 2.0 | 0.00 | 0.00 | 0.00 | 73 | 1018.5 |
| 20260831144514 | 85 | 207 | 3.0 | 3.0 | 0.00 | 0.00 | 0.00 | 76 | 1018.5 |
| 20260831144010 | 86 | 187 | 3.0 | 3.0 | 0.00 | 0.00 | 0.00 | 75 | 1018.9 |
| 20260831143504 | 86 | 115 | 1.0 | 2.0 | 0.00 | 0.00 | 0.00 | 76 | 1018.5 |
| 20260831143000 | 85 | 262 | 1.0 | 1.0 | 0.00 | 0.00 | 0.00 | 77 | 1018.5 |
| 20260831142456 | 85 | 180 | 1.0 | 1.0 | 0.00 | 0.00 | 0.00 | 78 | 1018.5 |
| 20260831141955 | 84 | 254 | 2.0 | 3.0 | 0.00 | 0.00 | 0.00 | 80 | 1018.2 |
| 20260831141449 | 85 | 139 | 1.0 | 1.0 | 0.00 | 0.00 | 0.00 | 79 | 1018.2 |
| 20260831140944 | 84 | 172 | 0.0 | 0.0 | 0.00 | 0.00 | 0.00 | 82 | 1018.9 |
| 20260831140439 | 83 | 188 | 3.0 | 3.0 | 0.00 | 0.00 | 0.00 | 82 | 1018.5 |
| 20260831135938 | 82 | 232 | 2.0 | 3.0 | 0.00 | 0.00 | 0.00 | 84 | 1018.5 |
| 20260831135437 | 82 | 174 | 3.0 | 3.0 | 0.00 | 0.00 | 0.00 | 84 | 1018.5 |
| 20260831134932 | 82 | 202 | 5.0 | 6.0 | 0.00 | 0.00 | 0.00 | 84 | 1018.5 |
| 20260831134429 | 82 | 215 | 1.0 | 1.0 | 0.00 | 0.00 | 0.00 | 85 | 1018.2 |
| 20260831133929 | 81 | 251 | 0.0 | 0.0 | 0.00 | 0.00 | 0.00 | 89 | 1017.9 |
| 20260831133429 | 80 | 188 | 1.0 | 2.0 | 0.00 | 0.00 | 0.00 | 90 | 1018.2 |
| 20260831132924 | 79 | 191 | 1.0 | 2.0 | 0.00 | 0.00 | 0.00 | 91 | 1017.9 |
| 20260831132419 | 79 | 222 | 1.0 | 1.0 | 0.00 | 0.00 | 0.00 | 92 | 1018.2 |
| 20260831131919 | 79 | 226 | 1.0 | 1.0 | 0.00 | 0.00 | 0.00 | 93 | 1017.9 |
| 20260831131414 | 78 | 236 | 0.0 | 0.0 | 0.00 | 0.00 | 0.00 | 93 | 1017.9 |
| 20260831130910 | 78 | 210 | 2.0 | 2.0 | 0.00 | 0.00 | 0.00 | 93 | 1017.9 |
| 20260831130405 | 78 | 247 | 0.0 | 0.0 | 0.00 | 0.00 | 0.00 | 94 | 1017.9 |
| 20260831125904 | 78 | 207 | 1.0 | 1.0 | 0.00 | 0.00 | 0.00 | 94 | 1017.9 |
| 20260831125359 | 78 | 264 | 0.0 | 1.0 | 0.00 | 0.00 | 0.00 | 94 | 1017.9 |
| 20260831124854 | 78 | 242 | 0.0 | 0.0 | 0.00 | 0.00 | 0.00 | 94 | 1017.9 |
| 20260831124350 | 77 | 222 | 0.0 | 0.0 | 0.00 | 0.00 | 0.00 | 94 | 1017.9 |
| 20260831123845 | 77 | 241 | 0.0 | 0.0 | 0.00 | 0.00 | 0.00 | 94 | 1017.9 |
| 20260831123344 | 77 | 232 | 0.0 | 0.0 | 0.00 | 0.00 | 0.00 | 94 | 1017.5 |
| 20260831122839 | 77 | 239 | 0.0 | 0.0 | 0.00 | 0.00 | 0.00 | 94 | 1017.9 |
| 20260831122335 | 77 | 253 | 0.0 | 0.0 | 0.00 | 0.00 | 0.00 | 93 | 1017.9 |
| 20260831121834 | 78 | 242 | 0.0 | 0.0 | 0.00 | 0.00 | 0.00 | 93 | 1017.5 |
| 20260831121331 | 78 | 246 | 0.0 | 1.0 | 0.00 | 0.00 | 0.00 | 93 | 1017.5 |
| 20260831120826 | 78 | 237 | 0.0 | 0.0 | 0.00 | 0.00 | 0.00 | 93 | 1017.5 |
| 20260831120320 | 78 | 242 | 0.0 | 0.0 | 0.00 | 0.00 | 0.00 | 93 | 1017.5 |
| 20260831115815 | 78 | 248 | 0.0 | 1.0 | 0.00 | 0.00 | 0.00 | 92 | 1017.2 |
| 20260831115312 | 78 | 253 | 0.0 | 0.0 | 0.00 | 0.00 | 0.00 | 92 | 1017.2 |
| 20260831114810 | 78 | 234 | 0.0 | 1.0 | 0.00 | 0.00 | 0.00 | 92 | 1017.2 |
| 20260831114304 | 78 | 231 | 1.0 | 2.0 | 0.00 | 0.00 | 0.00 | 92 | 1017.5 |
| 20260831113800 | 78 | 205 | 2.0 | 2.0 | 0.00 | 0.00 | 0.00 | 92 | 1017.5 |
| 20260831113259 | 78 | 213 | 0.0 | 1.0 | 0.00 | 0.00 | 0.00 | 91 | 1017.5 |
| 20260831112754 | 78 | 245 | 1.0 | 1.0 | 0.00 | 0.00 | 0.00 | 91 | 1017.5 |
| 20260831112249 | 78 | 218 | 1.0 | 2.0 | 0.00 | 0.00 | 0.00 | 91 | 1017.5 |
| 20260831111745 | 79 | 232 | 0.0 | 0.0 | 0.00 | 0.00 | 0.00 | 91 | 1017.5 |
| 20260831111241 | 79 | 234 | 0.0 | 1.0 | 0.00 | 0.00 | 0.00 | 91 | 1017.5 |
| 20260831110737 | 79 | 225 | 1.0 | 1.0 | 0.00 | 0.00 | 0.00 | 91 | 1017.2 |
| 20260831110231 | 79 | 240 | 0.0 | 1.0 | 0.00 | 0.00 | 0.00 | 91 | 1017.2 |
| 20260831105730 | 78 | 242 | 1.0 | 1.0 | 0.00 | 0.00 | 0.00 | 91 | 1017.5 |
| 20260831105226 | 78 | 215 | 0.0 | 0.0 | 0.00 | 0.00 | 0.00 | 91 | 1017.5 |
| 20260831104720 | 78 | 183 | 2.0 | 2.0 | 0.00 | 0.00 | 0.00 | 91 | 1017.5 |
| 20260831104217 | 78 | 232 | 0.0 | 0.0 | 0.00 | 0.00 | 0.00 | 91 | 1017.5 |
| 20260831103717 | 78 | 169 | 0.0 | 0.0 | 0.00 | 0.00 | 0.00 | 91 | 1017.5 |
| 20260831103213 | 78 | 204 | 1.0 | 2.0 | 0.00 | 0.00 | 0.00 | 90 | 1017.5 |
| 20260831102712 | 78 | 178 | 2.0 | 2.0 | 0.00 | 0.00 | 0.00 | 90 | 1017.2 |
| 20260831102207 | 79 | 221 | 1.0 | 1.0 | 0.00 | 0.00 | 0.00 | 90 | 1017.2 |
| 20260831101703 | 79 | 252 | 0.0 | 1.0 | 0.00 | 0.00 | 0.00 | 90 | 1017.2 |
| 20260831101158 | 79 | 253 | 0.0 | 0.0 | 0.00 | 0.00 | 0.00 | 90 | 1017.2 |
| 20260831100654 | 79 | 239 | 0.0 | 0.0 | 0.00 | 0.00 | 0.00 | 89 | 1017.2 |
| 20260831100150 | 79 | 215 | 2.0 | 2.0 | 0.00 | 0.00 | 0.00 | 89 | 1017.5 |
| 20260831095648 | 79 | 201 | 3.0 | 3.0 | 0.00 | 0.00 | 0.00 | 89 | 1017.2 |
| 20260831095143 | 79 | 257 | 0.0 | 0.0 | 0.00 | 0.00 | 0.00 | 88 | 1017.2 |
| 20260831094638 | 79 | 199 | 2.0 | 2.0 | 0.00 | 0.00 | 0.00 | 88 | 1017.5 |
| 20260831094135 | 79 | 261 | 1.0 | 1.0 | 0.00 | 0.00 | 0.00 | 88 | 1017.2 |
| 20260831093630 | 79 | 248 | 1.0 | 1.0 | 0.00 | 0.00 | 0.00 | 88 | 1017.5 |
| 20260831093126 | 79 | 212 | 3.0 | 3.0 | 0.00 | 0.00 | 0.00 | 88 | 1017.2 |
| 20260831092622 | 79 | 207 | 3.0 | 3.0 | 0.00 | 0.00 | 0.00 | 88 | 1017.5 |
| 20260831092117 | 79 | 195 | 1.0 | 1.0 | 0.00 | 0.00 | 0.00 | 87 | 1017.2 |
| 20260831091617 | 79 | 154 | 1.0 | 1.0 | 0.00 | 0.00 | 0.00 | 87 | 1017.2 |
| 20260831091112 | 79 | 176 | 2.0 | 2.0 | 0.00 | 0.00 | 0.00 | 87 | 1017.2 |
| 20260831090608 | 79 | 239 | 2.0 | 2.0 | 0.00 | 0.00 | 0.00 | 87 | 1017.2 |
| 20260831090104 | 79 | 232 | 1.0 | 1.0 | 0.00 | 0.00 | 0.00 | 87 | 1017.2 |
| 20260831085559 | 79 | 251 | 0.0 | 1.0 | 0.00 | 0.00 | 0.00 | 87 | 1017.2 |
| 20260831085054 | 79 | 170 | 2.0 | 2.0 | 0.00 | 0.00 | 0.00 | 87 | 1017.2 |
| 20260831084550 | 79 | 249 | 1.0 | 1.0 | 0.00 | 0.00 | 0.00 | 87 | 1017.2 |
| 20260831084046 | 79 | 244 | 2.0 | 2.0 | 0.00 | 0.00 | 0.00 | 86 | 1017.2 |
| 20260831083542 | 80 | 201 | 1.0 | 2.0 | 0.00 | 0.00 | 0.00 | 86 | 1017.2 |
| 20260831083036 | 80 | 255 | 1.0 | 1.0 | 0.00 | 0.00 | 0.00 | 86 | 1017.2 |
| 20260831082535 | 80 | 245 | 2.0 | 2.0 | 0.00 | 0.00 | 0.00 | 86 | 1017.5 |
| 20260831082031 | 80 | 152 | 0.0 | 1.0 | 0.00 | 0.00 | 0.00 | 85 | 1017.5 |
| 20260831081526 | 80 | 256 | 0.0 | 1.0 | 0.00 | 0.00 | 0.00 | 85 | 1017.2 |
| 20260831081022 | 80 | 243 | 2.0 | 2.0 | 0.00 | 0.00 | 0.00 | 85 | 1017.5 |
| 20260831080516 | 80 | 206 | 2.0 | 2.0 | 0.00 | 0.00 | 0.00 | 84 | 1017.2 |
| 20260831080012 | 80 | 204 | 3.0 | 3.0 | 0.00 | 0.00 | 0.00 | 84 | 1017.2 |
| 20260831075507 | 80 | 175 | 2.0 | 2.0 | 0.00 | 0.00 | 0.00 | 84 | 1017.5 |
| 20260831074957 | 81 | 207 | 3.0 | 3.0 | 0.00 | 0.00 | 0.00 | 83 | 1017.2 |
| 20260831074456 | 81 | 185 | 1.0 | 1.0 | 0.00 | 0.00 | 0.00 | 83 | 1017.2 |
| 20260831073951 | 81 | 203 | 3.0 | 6.0 | 0.00 | 0.00 | 0.00 | 83 | 1017.5 |
| 20260831073450 | 81 | 251 | 1.0 | 1.0 | 0.00 | 0.00 | 0.00 | 82 | 1017.5 |
| 20260831072949 | 81 | 244 | 2.0 | 2.0 | 0.00 | 0.00 | 0.00 | 81 | 1017.5 |
| 20260831072446 | 81 | 206 | 2.0 | 2.0 | 0.00 | 0.00 | 0.00 | 81 | 1017.5 |